Wind_Speed
23 24 25 26 27 27 28 29 30 31 32 34 35 36 36 36 36 36 36 36 36 36 37 37 38 40 41 42 42 44 45 45 45 45 46 45 44 43 45 44 45 45 46
25 26 27 28 29 30 30 31 33 34 35 36 37 38 38 38 37 37 37 36 36 36 37 37 37 38 39 41 42 43 44 45 45 45 46 46 45 44 44 44 45 46 46
27 28 29 30 31 32 33 34 35 37 38 39 40 40 39 39 39 39 38 37 36 36 36 36 36 37 38 39 40 41 43 44 45 46 47 48 47 46 45 45 45 46 46
28 30 31 32 33 34 35 37 38 40 41 42 42 41 40 40 40 39 37 36 35 35 35 34 35 36 37 38 39 40 42 43 45 46 47 48 48 47 46 45 45 44 45
30 31 33 34 35 36 37 40 42 43 43 44 43 42 41 40 39 38 37 36 35 35 34 34 34 35 36 37 39 40 41 42 44 46 47 48 49 48 47 46 45 43 44
31 32 34 35 36 37 40 42 44 44 45 45 43 42 41 40 39 38 37 35 34 34 34 35 35 35 35 37 38 40 42 42 43 45 47 48 49 49 47 46 45 45 43
32 33 35 36 38 40 42 44 45 46 46 45 43 42 41 40 38 36 35 34 34 34 34 34 34 34 35 36 38 39 41 43 44 45 47 48 49 51 50 48 46 46 44
33 34 36 38 40 42 44 46 47 47 46 45 43 42 40 39 37 35 35 34 33 33 33 33 33 34 34 35 37 39 41 43 44 46 47 48 50 51 51 51 50 47 47
33 35 36 39 41 44 46 48 48 47 46 45 43 41 39 37 36 34 33 32 32 31 31 31 31 32 34 35 36 38 39 42 45 47 48 49 50 51 52 52 51 50 48
35 36 39 41 43 46 48 49 49 48 46 44 41 39 37 35 34 33 32 31 30 30 30 30 30 31 32 33 35 36 38 40 43 46 48 49 51 52 52 52 52 51 50
37 39 41 44 46 47 49 50 50 48 45 43 40 38 36 34 33 32 31 30 29 29 29 29 29 30 30 31 33 35 37 39 41 44 46 48 50 52 53 53 53 53 52
39 41 44 47 48 50 51 51 50 47 44 41 38 37 35 33 32 31 31 30 29 29 29 29 28 28 28 29 30 32 34 37 39 41 44 46 49 51 53 54 54 54 54
41 44 47 49 50 51 52 51 49 46 43 39 37 36 34 33 31 31 30 29 29 28 28 28 27 27 28 27 27 28 30 33 36 39 41 44 47 49 52 54 54 55 55
44 46 48 50 51 52 52 50 48 45 42 38 36 35 33 32 31 31 30 29 29 28 28 27 26 25 25 25 25 25 27 28 32 36 39 42 46 48 51 53 54 55 55
46 49 50 51 52 53 51 49 46 44 41 38 36 34 32 32 31 31 30 29 29 28 27 25 24 23 22 21 21 22 23 25 28 32 36 39 43 46 49 51 53 54 55
49 51 51 52 53 52 50 47 44 42 40 37 34 33 32 31 31 30 29 28 29 28 26 23 22 20 20 20 19 19 20 21 24 28 33 36 40 43 46 49 52 54 55
51 52 52 53 52 51 49 46 43 41 38 36 34 32 31 31 30 30 29 28 28 26 24 22 20 18 18 17 17 17 17 18 20 24 29 33 36 40 43 47 50 52 54
53 53 53 52 51 49 46 44 41 39 37 35 34 32 31 31 30 29 29 28 26 24 22 20 18 17 16 16 16 15 15 16 17 21 25 29 33 37 39 43 47 50 52
55 54 52 50 48 46 44 41 39 37 35 33 32 31 31 30 29 29 29 27 25 24 22 20 17 16 15 15 14 13 12 13 14 17 21 26 30 34 37 40 44 47 50
55 53 51 49 47 44 41 39 37 35 33 32 31 30 29 29 28 27 28 27 25 23 21 19 17 15 14 13 13 12 11 11 13 14 18 22 26 31 34 37 40 43 47
54 52 50 47 44 42 40 37 36 34 32 31 30 29 28 27 26 26 26 25 23 22 20 18 16 15 13 12 12 11 11 11 11 13 16 19 23 28 32 35 37 41 44
52 50 47 45 42 40 38 36 34 33 31 30 29 28 27 26 25 25 24 23 22 21 19 17 15 14 13 12 11 11 11 11 12 13 16 18 21 25 29 33 36 39 42
50 48 45 43 40 38 36 34 33 31 30 28 26 26 25 24 23 23 22 22 21 19 17 15 14 13 12 12 12 12 11 11 12 14 16 18 20 23 26 30 34 37 40
48 45 43 41 39 36 34 33 31 29 27 26 24 23 23 22 21 21 20 20 19 18 16 15 15 14 13 12 11 12 13 13 13 15 17 18 20 22 25 29 32 35 38
46 43 41 39 36 34 32 30 28 26 25 24 22 21 21 20 20 19 19 18 18 18 16 15 15 14 12 11 10 10 12 13 14 16 18 19 20 22 24 27 31 33 36
43 41 38 36 33 31 29 27 25 24 23 22 20 19 19 18 17 17 17 16 16 17 16 15 14 13 11 10 9 9 11 13 14 16 18 20 21 22 23 26 30 33 35
Wind_Direction
327 328 328 327 326 324 323 322 320 319 318 317 315 313 310 308 305 302 299 296 291 287 283 279 274 269 264 260 256 252 249 246 243 241 241 239 238 236 234 232 230 229 227
327 329 329 328 326 325 324 323 321 320 319 317 315 313 310 308 305 303 300 297 293 288 284 279 274 269 264 260 256 252 249 246 242 239 238 237 236 235 233 233 231 229 227
327 329 329 328 327 325 324 323 322 320 319 317 315 313 311 308 305 303 300 297 294 290 285 280 275 270 265 261 257 253 249 246 242 239 237 236 235 233 232 232 231 229 228
328 329 328 327 326 325 325 324 322 321 319 317 316 313 310 308 305 303 300 297 294 290 286 281 276 271 266 262 258 254 250 246 242 239 236 235 235 234 232 232 231 229 228
327 328 327 327 326 326 325 324 323 321 319 318 316 313 311 308 306 303 300 297 294 290 286 282 277 272 267 262 258 254 250 247 243 239 236 234 234 233 232 231 230 228 228
327 327 327 327 326 326 326 326 324 322 320 318 316 314 312 310 307 304 302 299 295 292 288 284 279 275 270 264 259 254 250 246 243 239 236 234 233 233 231 230 229 228 227
326 326 327 326 326 326 327 326 325 324 321 319 317 315 313 310 308 305 303 300 297 294 290 285 281 277 272 266 260 255 251 246 243 240 236 234 233 232 231 229 227 227 226
325 325 326 327 327 328 328 328 326 325 322 319 317 315 313 311 309 307 304 301 299 296 292 287 283 279 274 268 262 256 251 247 243 240 237 234 233 232 231 230 227 226 226
324 324 326 327 329 329 330 329 328 326 323 320 318 316 314 312 310 309 307 304 300 297 294 290 286 281 277 271 264 258 253 248 244 241 237 235 232 231 230 230 228 227 226
323 324 325 328 329 329 330 330 330 327 324 322 320 318 316 314 312 311 309 306 302 299 297 293 290 285 280 274 267 259 254 250 246 241 237 235 233 231 229 229 228 227 226
323 323 325 327 328 329 330 331 330 328 326 323 322 320 318 316 313 312 311 308 304 301 298 295 292 288 283 276 269 261 256 251 246 241 237 234 233 230 228 227 227 226 225
322 323 326 327 328 329 329 330 330 329 326 324 322 320 319 318 315 314 313 310 306 303 300 297 294 290 287 281 272 264 258 251 246 241 237 233 232 230 227 226 226 225 224
320 322 324 325 326 327 328 328 329 328 326 324 322 321 320 319 317 316 315 313 310 306 303 299 296 292 289 284 276 267 260 252 244 239 236 233 230 229 227 225 225 224 223
318 320 322 323 324 325 327 327 327 327 325 324 322 322 321 319 319 318 317 315 314 310 307 303 298 295 291 286 280 272 263 253 244 239 235 232 229 228 226 224 223 223 221
315 318 319 320 321 323 324 325 325 325 324 323 322 321 320 320 319 319 318 317 315 314 310 306 302 297 294 289 284 278 267 255 245 238 234 230 227 225 225 223 222 221 221
313 316 317 318 320 321 322 323 323 323 322 321 322 321 321 320 320 320 320 319 317 316 312 308 304 299 296 293 287 282 271 257 245 237 232 228 226 224 223 221 221 220 219
312 313 314 316 317 318 319 320 320 320 320 320 321 321 322 321 322 322 322 321 320 319 315 310 305 301 298 294 290 283 274 260 247 236 228 225 223 222 222 220 219 218 218
310 311 311 313 314 315 316 317 317 317 318 318 319 321 322 322 323 324 324 324 322 321 318 313 307 301 298 295 290 282 271 260 247 235 227 223 221 219 219 218 217 217 217
307 308 309 310 311 312 313 313 314 315 315 315 317 319 320 322 323 324 326 326 324 322 319 314 308 301 298 295 290 282 272 258 244 233 226 221 218 216 215 215 215 215 215
304 305 306 307 307 309 309 309 311 312 312 313 314 317 319 321 322 323 325 326 324 322 319 315 308 301 296 293 288 279 268 257 245 232 223 219 216 213 212 210 211 213 213
302 302 303 303 304 304 305 305 307 309 309 310 311 314 316 318 320 322 324 325 324 323 321 316 308 301 294 290 284 271 261 254 243 227 217 213 212 211 209 209 209 210 210
299 300 300 300 301 301 300 301 303 305 305 306 308 311 314 316 318 321 323 325 325 324 323 319 312 304 294 282 275 264 254 246 236 224 213 210 207 207 208 208 207 208 209
297 297 296 296 296 296 296 296 298 300 301 302 305 308 311 313 316 319 321 323 325 324 324 322 317 310 297 282 270 262 253 241 231 220 211 208 206 206 205 205 204 204 206
294 293 292 292 292 292 291 291 292 294 296 299 301 304 308 310 312 317 319 321 324 325 323 320 317 312 301 286 273 258 249 239 228 216 210 207 206 205 204 201 202 203 204
291 289 288 288 288 287 287 288 287 289 292 295 297 300 305 307 308 313 316 319 322 324 323 321 320 318 311 293 274 257 244 233 224 217 210 208 208 207 204 203 202 202 204
286 285 284 283 283 282 282 282 282 285 289 291 292 296 302 304 306 309 313 317 322 326 327 322 320 321 319 308 282 261 243 229 221 217 212 209 208 205 203 203 202 201 201
Height
5823 5819 5814 5810 5805 5801 5796 5791 5786 5782 5777 5772 5767 5762 5757 5752 5748 5743 5739 5736 5732 5729 5726 5724 5722 5721 5721 5722 5723 5725 5727 5730 5734 5737 5740 5744 5749 5753 5758 5762 5767 5772 5778
5818 5814 5809 5804 5799 5794 5789 5784 5779 5774 5768 5763 5758 5752 5747 5742 5737 5732 5728 5724 5720 5716 5713 5711 5710 5708 5708 5709 5710 5712 5714 5717 5721 5725 5729 5733 5738 5743 5747 5752 5757 5762 5767
5813 5808 5803 5798 5793 5788 5783 5777 5772 5766 5760 5754 5748 5742 5736 5731 5725 5721 5716 5712 5708 5704 5701 5699 5697 5696 5696 5696 5697 5699 5701 5705 5708 5713 5717 5721 5727 5732 5737 5742 5747 5752 5757
5807 5802 5797 5792 5786 5781 5775 5770 5764 5757 5751 5744 5738 5731 5725 5720 5714 5709 5704 5700 5696 5692 5689 5687 5685 5684 5684 5684 5685 5686 5689 5692 5696 5700 5705 5710 5715 5720 5726 5731 5737 5742 5748
5801 5796 5791 5785 5780 5774 5768 5762 5755 5748 5741 5734 5728 5721 5714 5708 5703 5697 5693 5688 5684 5681 5678 5675 5673 5672 5672 5672 5673 5674 5676 5679 5683 5688 5693 5698 5703 5709 5715 5721 5727 5732 5738
5795 5790 5784 5778 5773 5767 5760 5754 5746 5739 5732 5724 5717 5710 5703 5697 5692 5686 5681 5677 5673 5669 5666 5663 5661 5660 5659 5660 5660 5662 5664 5667 5671 5675 5681 5686 5692 5698 5704 5710 5716 5722 5729
5788 5783 5777 5771 5765 5759 5752 5745 5737 5729 5722 5714 5707 5700 5693 5686 5681 5675 5670 5666 5662 5658 5654 5651 5649 5648 5647 5647 5647 5649 5651 5654 5658 5662 5668 5673 5679 5686 5693 5700 5706 5712 5718
5782 5776 5771 5764 5758 5751 5743 5735 5728 5720 5712 5704 5696 5689 5683 5676 5670 5665 5660 5655 5651 5647 5643 5640 5638 5636 5634 5634 5635 5636 5638 5641 5645 5649 5656 5661 5666 5673 5680 5687 5694 5701 5708
5775 5769 5763 5757 5750 5742 5734 5726 5718 5710 5702 5694 5686 5679 5673 5666 5661 5655 5650 5645 5641 5637 5633 5630 5627 5625 5623 5622 5622 5623 5625 5628 5631 5636 5641 5647 5654 5661 5668 5676 5684 5691 5698
5767 5761 5755 5748 5741 5733 5725 5717 5709 5700 5692 5684 5677 5670 5663 5657 5651 5646 5641 5636 5632 5628 5624 5620 5617 5614 5612 5610 5609 5610 5612 5614 5617 5622 5628 5634 5641 5648 5656 5664 5672 5680 5687
5759 5753 5747 5740 5732 5725 5716 5708 5700 5691 5683 5675 5668 5661 5655 5649 5643 5638 5632 5627 5623 5618 5614 5610 5607 5604 5600 5598 5597 5597 5598 5601 5604 5608 5614 5620 5627 5635 5643 5651 5659 5668 5676
5751 5744 5738 5731 5723 5715 5707 5699 5691 5683 5674 5667 5660 5653 5647 5641 5635 5629 5624 5619 5614 5609 5605 5601 5597 5594 5590 5588 5586 5585 5585 5587 5591 5595 5601 5607 5614 5622 5630 5639 5647 5656 5665
5741 5735 5728 5721 5714 5706 5698 5690 5682 5674 5666 5659 5652 5645 5639 5633 5627 5622 5616 5611 5606 5601 5596 5592 5588 5584 5581 5578 5576 5574 5574 5575 5578 5583 5589 5595 5602 5609 5617 5626 5635 5643 5652
5732 5725 5719 5712 5704 5697 5689 5681 5673 5665 5658 5651 5644 5638 5632 5626 5620 5614 5608 5603 5598 5593 5588 5583 5579 5575 5572 5569 5566 5565 5564 5565 5567 5572 5576 5582 5589 5597 5605 5613 5623 5631 5641
5722 5715 5709 5702 5694 5687 5679 5672 5664 5657 5650 5644 5637 5631 5625 5619 5613 5607 5601 5595 5590 5585 5580 5575 5571 5567 5564 5561 5558 5556 5555 5555 5557 5561 5565 5570 5577 5585 5593 5602 5611 5620 5630
5711 5705 5699 5691 5684 5677 5670 5662 5655 5649 5642 5636 5630 5624 5618 5612 5606 5600 5594 5588 5583 5577 5572 5568 5564 5561 5558 5554 5552 5549 5548 5547 5549 5551 5555 5561 5567 5574 5582 5590 5599 5609 5619
5701 5695 5688 5681 5674 5667 5660 5653 5646 5640 5634 5628 5622 5616 5611 5605 5599 5593 5587 5582 5576 5571 5566 5561 5558 5555 5552 5549 5546 5544 5542 5541 5542 5544 5547 5552 5558 5564 5571 5580 5589 5598 5608
5689 5683 5677 5670 5663 5657 5650 5644 5638 5632 5626 5620 5615 5609 5604 5598 5592 5586 5581 5575 5570 5564 5560 5556 5552 5549 5546 5544 5541 5539 5537 5537 5536 5538 5540 5545 5550 5556 5562 5570 5579 5589 5598
5677 5671 5665 5659 5653 5647 5641 5635 5629 5623 5618 5613 5607 5602 5597 5592 5586 5580 5575 5569 5564 5559 5555 5551 5547 5544 5542 5539 5536 5535 5533 5532 5532 5533 5535 5539 5543 5549 5555 5562 5571 5579 5589
5665 5659 5653 5647 5642 5636 5631 5625 5620 5615 5610 5605 5601 5596 5591 5585 5580 5575 5569 5564 5559 5554 5550 5546 5543 5540 5537 5535 5532 5531 5530 5529 5529 5530 5531 5534 5538 5543 5549 5556 5564 5572 5581
5651 5646 5640 5635 5630 5625 5621 5616 5612 5607 5603 5598 5594 5589 5585 5580 5575 5570 5565 5559 5554 5549 5545 5541 5538 5535 5533 5531 5529 5527 5527 5526 5526 5527 5528 5531 5534 5539 5544 5550 5558 5566 5574
5636 5632 5627 5622 5618 5614 5610 5606 5603 5599 5595 5591 5587 5583 5578 5574 5569 5565 5560 5555 5550 5545 5541 5537 5534 5531 5529 5527 5526 5524 5524 5523 5524 5524 5526 5528 5531 5535 5540 5546 5552 5560 5567
5621 5617 5614 5610 5606 5603 5600 5596 5593 5590 5587 5583 5580 5576 5572 5568 5564 5560 5555 5551 5546 5542 5537 5534 5530 5527 5525 5523 5522 5521 5520 5520 5521 5522 5523 5526 5529 5532 5536 5541 5547 5554 5561
5606 5603 5600 5597 5594 5591 5589 5586 5584 5581 5579 5576 5573 5570 5566 5562 5559 5555 5551 5547 5542 5538 5534 5530 5527 5524 5521 5519 5518 5517 5517 5517 5518 5519 5521 5523 5526 5529 5533 5538 5543 5549 5556
5591 5588 5586 5584 5582 5580 5578 5576 5574 5573 5571 5568 5566 5563 5560 5557 5554 5550 5547 5543 5539 5535 5531 5527 5523 5520 5517 5515 5513 5513 5513 5513 5514 5516 5518 5520 5523 5526 5530 5534 5539 5545 5551
5575 5573 5572 5571 5570 5568 5568 5567 5566 5564 5563 5561 5559 5557 5555 5552 5549 5546 5542 5539 5535 5531 5527 5524 5520 5517 5514 5511 5510 5509 5509 5510 5511 5513 5515 5517 5520 5523 5527 5531 5535 5541 5547